Weather History for El Centro, CA

Change the Weather History Date:

Saturday, November 16, 2013

  Actual Average Record
Temperature  
Mean Temperature 65 °F -  
Max Temperature 73 °F 75 °F 90 °F (1999)
Min Temperature 57 °F 50 °F 41 °F (2000)
Growing Degree Days 15 (Base 50)    
Moisture  
Dew Point 41 °F    
Average Humidity 45    
Maximum Humidity 58    
Minimum Humidity 29    
Precipitation  
Precipitation 0.00 in - - ()
Sea Level Pressure  
Sea Level Pressure 29.81 in    
Wind  
Wind Speed 12 mph (WSW)    
Max Wind Speed 25 mph    
Max Gust Speed 31 mph    
Visibility 10 miles    
Events      
Averages and records for this station are not official NWS values.
T = Trace of Precipitation, MM = Missing Value Source: NWS Daily Summary

Daily Weather History Graph

Daily Weather History Graph

Search for Another Location

Airport:

Trip Planner

Search our weather history database for the weather conditions in past years. The results will help you decide how hot, cold, wet, or windy it might be!

Date:

Astronomy

Nov. 16, 2013 Rise Set
Actual Time 6:14 AM PST 4:40 PM PST
Civil Twilight 5:47 AM PST 5:06 PM PST
Nautical Twilight 5:18 AM PST 5:36 PM PST
Astronomical Twilight 4:48 AM PST 6:05 PM PST
Moon 4:16 PM PST (11/16) 5:17 AM PST (11/16)
Length of Visible Light 11h 18m
Length of Day
10h 26m
Waxing Gibbous, 99% of the Moon is Illuminated
Nov 16
Waxing Gibbous
Nov 17
Full
Nov 25
Last Quarter
Dec 2
New
Dec 9
First Quarter

Hourly Weather History & Observations

Time (PST) Temp. Dew Point Humidity Pressure Visibility Wind Dir Wind Speed Gust Speed Precip Events Conditions
12:56 AM 60.1 °F 44.1 °F 55% 29.71 in 10.0 mi WSW 9.2 mph - N/A   Clear
1:56 AM 59.0 °F 44.1 °F 58% 29.73 in 10.0 mi West 11.5 mph - N/A   Clear
2:56 AM 61.0 °F 44.1 °F 54% 29.74 in 10.0 mi West 9.2 mph - N/A   Clear
3:56 AM 59.0 °F 44.1 °F 58% 29.75 in 10.0 mi West 11.5 mph - N/A   Clear
4:56 AM 59.0 °F 44.1 °F 58% 29.77 in 10.0 mi WSW 8.1 mph - N/A   Clear
5:56 AM 57.9 °F 42.1 °F 56% 29.78 in 10.0 mi South 4.6 mph - N/A   Partly Cloudy
6:56 AM 57.9 °F 39.9 °F 51% 29.79 in 10.0 mi Calm Calm - N/A   Partly Cloudy
7:56 AM 63.0 °F 42.1 °F 46% 29.82 in 10.0 mi West 4.6 mph - N/A   Partly Cloudy
8:56 AM 69.1 °F 42.1 °F 38% 29.84 in 10.0 mi WSW 19.6 mph 26.5 mph N/A   Partly Cloudy
9:56 AM 71.1 °F 42.1 °F 35% 29.85 in 10.0 mi WSW 21.9 mph 31.1 mph N/A   Partly Cloudy
10:56 AM 72.0 °F 39.9 °F 31% 29.84 in 10.0 mi WSW 19.6 mph - N/A   Partly Cloudy
11:56 AM 73.0 °F 39.0 °F 29% 29.81 in 10.0 mi West 17.3 mph 24.2 mph N/A   Partly Cloudy
12:56 PM 73.0 °F 39.9 °F 30% 29.79 in 10.0 mi WSW 25.3 mph 29.9 mph N/A   Partly Cloudy
1:56 PM 73.0 °F 41.0 °F 31% 29.78 in 10.0 mi West 25.3 mph 29.9 mph N/A   Partly Cloudy
2:56 PM 72.0 °F 41.0 °F 33% 29.78 in 10.0 mi WSW 19.6 mph 27.6 mph N/A   Partly Cloudy
3:56 PM 69.1 °F 41.0 °F 36% 29.80 in 10.0 mi WSW 20.7 mph - N/A   Partly Cloudy
4:56 PM 66.0 °F 39.9 °F 38% 29.81 in 10.0 mi WSW 18.4 mph - N/A   Clear
5:56 PM 64.0 °F 39.9 °F 41% 29.83 in 10.0 mi WSW 16.1 mph - N/A   Clear
6:56 PM 62.1 °F 41.0 °F 46% 29.84 in 10.0 mi West 11.5 mph - N/A   Clear
7:56 PM 60.1 °F 39.9 °F 47% 29.86 in 10.0 mi West 10.4 mph - N/A   Clear
8:56 PM 59.0 °F 39.9 °F 49% 29.89 in 10.0 mi West 10.4 mph - N/A   Clear
9:56 PM 60.1 °F 41.0 °F 49% 29.91 in 10.0 mi WSW 12.7 mph - N/A   Clear
10:56 PM 60.1 °F 41.0 °F 49% 29.91 in 10.0 mi WSW 12.7 mph - N/A   Clear
11:56 PM 59.0 °F 41.0 °F 51% 29.93 in 10.0 mi WSW 11.5 mph - N/A   Clear